CZ-4 DEB, 26650

Orbit data source: Space-Track

CZ-4 DEB, 26650 is space debris in SSO originally from a launch on Thu, 14 Oct 1999 UTC launched from the Taiyaun Space Center, China (TSC). Debris objects in space refer to the collection of defunct objects orbiting the Earth. Examples of debris include non-operational satellites, rocket bodies, and fragments generated from explosions, collisions, or faulty payload assembly.

Loading next visibility...
Identifier
26650, 1999-057LG
Orbit
SSO
Country
Flag of CNCN / PRC
Related business
Manufacturer
Unknown
Mission
Spacecraft
Bus & Motor
Unknown
Mass
Unknown
Launch date (UTC)
1999-10-14 (26 years ago)
Launch vehicle
Unknown
Launch site
Taiyaun Space Center, China (TSC)
Object type
Payload
Rocket body
Debris
Shape & HBR
Unknown shape, 0.1 m
Radar Cross Section
Small (<0.1 m²)

Expand to show TLE details & history
Last TLE update: 23 hours ago

TLE from 23 hours ago
0 CZ-4 DEB
1 26650U 99057LG  25299.97030817  .00079216  00000-0  19540-2 0  9997
2 26650  98.5630 307.2048 0008151  91.8878 268.3298 15.40210619364057
Epoch: 2025-10-26T23:17Z
TLE epoch observation values (Epoch: 2025-10-26T23:17:14.625Z)
Latitude
-0.00006°
Longitude
-77.68499°
Altitude
448.736 km
Speed
7.643 km/s
True Right ascension
20h 28m 49s
True Declination
0° 00' 00"
Sunlit
Object was in daylight at epoch
Visualization orbit readout
Latitude
Unknown
Longitude
Unknown
Altitude
Unknown
Speed
Unknown
Apparent Right ascension
Unknown
Apparent Declination
Unknown
Sunlit
N/A
Visualization observer readout
Local Sidereal Time
17:52:28
Azimuth
Unknown
Elevation
Unknown
Doppler factor
Unknown
Orbital elements
Apogee altitude
448.039 km
Perigee altitude
436.92 km
Semi-major axis
6,820.617 km
Eccentricity
0.00082
Inclination
98.563°
RAAN
307.2048°
Arg. of periapsis
91.8878°
True anomaly
268.23644°
Mean anomaly
268.3298°
Eccentric anomaly
268.28312°
Mean motion
3.85308 °/min
Orbital period
93.43 mins
BSTAR
0.001954
Loading maneuver chart data...
Computing Atmospheric mass density...
Loading historical data...
Loading historical data...
Loading historical data...
Loading historical data...
Loading historical data...
Loading historical data...
Loading historical data...

Documentation

Showing up to 5 results
|